Other Public Products
Issued by NWS Grand Forks, ND

Home | Current Version | Previous Version | Graphics & Text | Print | Product List | Glossary On
Versions: 1 2 3 4 5 6 7 8 9 10 11 12 13 14 15 16 17 18 19 20 21 22 23 24 25 26 27 28 29 30 31 32 33 34 35 36 37 38 39 40 41 42 43 44 45 46 47 48 49 50
000
FPUS83 KFGF 110831
OPUFGF
PRAIRIE TO PINES WEATHER ROUNDUP
NATIONAL WEATHER SERVICE EASTERN NORTH DAKOTA/GRAND FORKS ND
300 AM CDT FRI JUL 11 2014

 **SATELLITE DATA USED TO AUGMENT SKY COVER AT AUTOMATED STATIONS**
 *****  WEATHER ACROSS EASTERN NORTH DAKOTA  *****

CITY           SKY/WX    TMP DP  RH WIND       PRES   REMARKS
GRAND FORKS    PTCLDY    64  62  93 CALM      29.79F
GRAND FORKS AF CLEAR     62  62 100 S2        29.80F
GRAND CITY NWS   N/A     64 N/A N/A S2          N/A
BUXTON           N/A     67  66  98 CALM        N/A
DEVILS LAKE    MOCLDY    66  61  82 S6        29.78F
FARGO          CLEAR     71  67  87 SE10      29.79F
WAHPETON ARPT  CLOUDY    70  64  83 E5        29.80F
$$

 *****  WEATHER ACROSS CENTRAL AND WESTERN NORTH DAKOTA  *****

CITY           SKY/WX    TMP DP  RH WIND       PRES   REMARKS
JAMESTOWN      FOG       62  61  96 CALM      29.79F VSB 1/4
BISMARCK       CLEAR     66  64  93 NW3       29.83S
MINOT          CLEAR     68  64  87 S3        29.82S
MINOT AFB      CLEAR     65  65 100 NW10      29.84R
GARRISON         N/A     67  66  97 E3        29.84S
WILLISTON      CLEAR     63  59  87 N9        29.89S
DICKINSON      CLEAR     62  61  96 W9        29.88R FOG
HETTINGER      CLEAR     62  60  93 NW3       29.89F
$$

 *****  OTHER OBSERVATIONS NORTHEAST NORTH DAKOTA  *****

CITY           SKY/WX    TMP DP  RH WIND       PRES   REMARKS
WALHALLA         N/A     66  66 100 NW5         N/A
LANGDON        FAIR      63  61  94 N6        29.82R
CAVALIER       FAIR      66  64  94 SW5       29.79R
GRAFTON        FAIR      64  64 100 S3        29.78S
CANDO          FAIR      63  63 100 SW3       29.81R
FORT TOTTEN      N/A     66  64  93 S6        29.95
ROLLA          PTSUNNY   64  64 100 N9        29.85R
RUGBY          FAIR      63  63 100 CALM      29.80S
 ***** THE ABOVE OBSERVATIONS ARE NON NWS ARE NOT QUALITY
        CONTROLLED AND MAY MIS-REPORT RAIN FOR SNOW...
$$

 *****  OTHER OBSERVATIONS SOUTHEAST NORTH DAKOTA *****

CITY           SKY/WX    TMP DP  RH WIND       PRES   REMARKS
COOPERSTOWN    NOT AVBL
VALLEY CITY    FOG       61  61 100 SW3       29.81S VSB 1/4
OAKES          NOT AVBL
GWINNER        MOSUNNY   73  72  94 SW8       29.80F
BUFFALO          N/A     63  60  91 SE2         N/A
WYNDMERE       NOT AVBL
 ***** THE ABOVE OBSERVATIONS ARE NON NWS ARE NOT QUALITY
       CONTROLLED AND MAY MIS-REPORT RAIN FOR SNOW...
$$

  *****  WEATHER ACROSS NORTHERN MINNESOTA  *****

CITY           SKY/WX    TMP DP  RH WIND       PRES   REMARKS
FLAG ISLAND    MOCLDY    68  64  88 S5        29.82F
WARROAD        PTCLDY    64  61  88 S3        29.83F
ROSEAU         CLEAR     66  61  82 S6        29.81F
HALLOCK        MOCLDY    66  63  88 S3        29.79R
THF RVR FALLS    N/A    N/A N/A N/A MISG        N/A
HALSTAD          N/A     67  64  91 S5          N/A
FOSSTON        PTCLDY    66  64  94 SE8       29.83F
BAUDETTE       CLEAR     65  62  90 CALM      29.86F
WASKISH        CLOUDY    66  64  94 SE5       29.84F
CROOKSTON      MOCLDY    68  66  94 S6        29.80F
$$
  *****  WEATHER ACROSS CENTRAL AND WEST MINNESOTA  *****

CITY           SKY/WX    TMP DP  RH WIND       PRES   REMARKS
BEMIDJI        CLOUDY    66  65  96 SE10      29.86F
PARK RAPIDS    LGT RAIN  67  65  93 S10       29.87R
WADENA         NOT AVBL
DETROIT LAKES  CLOUDY    68  66  94 SE7       29.86S
MOORHEAD       PTCLDY    72  72 100 SE9       29.80F
FERGUS FALLS   MOCLDY    72  66  83 S9        29.82F
ELBOW LAKE     CLOUDY    72  66  83 S18       29.81F
MORRIS MN      PTCLDY    73  66  78 S15       29.81F THUNDER
STAPLES        CLOUDY    61  61 100 SE9G17    29.89F
WHEATON        CLEAR     70  64  83 S7        29.81F
$$
  *****  WEATHER ELSEWHERE ACROSS MINNESOTA  *****

CITY           SKY/WX    TMP DP  RH WIND       PRES   REMARKS
DULUTH         LGT RAIN  62  59  90 S6        29.98F
INTRNTL FALLS  MOCLDY    64  61  90 CALM      29.87F
ELY            LGT RAIN  64  61  88 S8        29.95F
CLOQUET        LGT RAIN  57  55  94 E5        29.97F
BRAINERD       RAIN      71  64  78 S6        29.91F
HIBBING        LGT RAIN  65  62  90 S5        29.94F
ALEXANDRIA     MOCLDY    72  65  78 S20G29    29.86F
SAINT CLOUD    CLOUDY    74  59  59 S22G28    29.91F
MINNEAPOLIS    CLOUDY    73  60  63 S16G23    29.98F
$$

  *****  WEATHER ACROSS SOUTH DAKOTA  *****

CITY           SKY/WX    TMP DP  RH WIND       PRES   REMARKS
SIOUX FALLS    LGT RAIN  71  67  87 S22G32    29.93F
BROOKINGS      NOT AVBL
WATERTOWN      MOCLDY    71  66  84 S12       29.86F
HURON          MOCLDY    73  67  81 S10G23    29.82F
SISSETON         N/A     75  68  78 SW10      29.78F
ABERDEEN       CLEAR     69  68  96 S8        29.79F
MITCHELL       CLOUDY    72  69  90 S18G30    29.86F
PIERRE         CLEAR     69  67  93 CALM      29.81R
MOBRIDGE       PTCLDY    63  62  97 N12       29.79F FOG
RAPID CITY     PTCLDY    66  62  87 SE5       29.92S
$$

  *****  SOME WEATHER IN NEARBY STATES *****

CITY           SKY/WX    TMP DP  RH WIND       PRES   REMARKS
GLASGOW MT     LGT RAIN  66  58  75 N14       29.92R
GREAT FALLS MT CLEAR     66  49  54 NW8       29.98R
CHEYENNE WY    CLOUDY    65  56  72 N5        30.15S
SCOTTSBLUFF NE CLOUDY    68  61  78 SE7       30.01F
OMAHA NE       PTCLDY    72  65  78 S15       29.99S
DES MOINES IA  CLOUDY    68  59  73 SE10      30.06F
DAVENPORT IA   PTCLDY    63  56  78 S6        30.15F
CHICAGO IL     MOCLDY    63  51  65 CALM      30.18F
EAU CLAIRE WI  PTCLDY    67  61  81 S9        30.04F
LA CROSSE WI   PTCLDY    72  60  66 S10       30.08F
$$

  *****  SOME NATIONAL WEATHER *****

CITY           SKY/WX    TMP DP  RH WIND       PRES   REMARKS
LA GUARDIA NY  CLOUDY    72  63  73 E6        30.13R
RALEIGH NC     MOCLDY    70  68  93 CALM      30.12S
ATLANTA GA     MOCLDY    72  69  90 CALM      30.10S
NEW ORLEANS LA PTCLDY    76  74  93 CALM      30.09F
OKLAHOMA CITY  PTCLDY    72  66  81 S8        30.02S
ALBUQUERQUE NM MOCLDY    74  54  49 CALM      30.15S
SALT LAKE CITY MOCLDY    71  58  63 S8        30.05S
LOS ANGELES CA CLOUDY    67  60  78 SW10      29.97R
BOISE ID       PTCLDY    75  49  39 NE3       29.86R
SEATTLE WA     CLEAR     68  53  58 N9        29.93S
$$

*** WEATHER ACROSS MANITOBA...SASKATCHEWAN AND ONTARIO ***
                ***ONTARIO***

CITY           SKY/WX    TMP DP  RH WIND       PRES   REMARKS
GERALDTON      PTCLDY    54  46  76 S3        30.02F
THUNDER BAY    PTCLDY    52  50  93 NE6       30.00F
SIOUX LOOKOUT  MOCLDY    61  55  82 S5        29.88F
TORONTO        CLEAR     57  50  77 CALM      30.22R
BIG TROUT LK   LGT RAIN  63  54  72 S7        29.74F
PICKLE LAKE    NOT AVBL
DRYDEN         MOCLDY    66  55  68 S9        29.87F
KENORA         MOCLDY    66  61  82 S7        29.84F
$$
                *** MANITOBA***

CITY           SKY/WX    TMP DP  RH WIND       PRES   REMARKS
BRANDON        PTCLDY    64  64 100 W10       29.82R
DAUPHIN        CLEAR     63  57  82 SW8       29.78S
ISLAND LAKE    CLOUDY   N/A N/A N/A SW8G17      N/A
PILOT MOUND      N/A     66  63  88 W3          N/A
THE PAS        PTCLDY    63  50  63 W15G22    29.64F
THOMPSON       PTCLDY    52  52 100 E9        29.54F
WINNIPEG       PTCLDY    68  63  83 S12       29.75F
LYNN LAKE      MOCLDY    55  52  88 S8        29.48F
CHURCHILL      LGT RAIN  48  46  93 SE23G30   29.48F
GILLAM         PTCLDY    61  61 100 SW12      29.52R
$$
                ***SASKATCHEWAN***

CITY           SKY/WX    TMP DP  RH WIND       PRES   REMARKS
ESTEVAN        CLEAR     57  57 100 N6        29.90S
KINDERSLEY     PTCLDY    52  48  87 W10       30.04R
LLOYDMINSTER   CLEAR     52  50  93 NW15G22   29.98R
PRINCE ALBERT  PTCLDY    55  50  82 W16       29.81R
REGINA         MOCLDY    57  55  94 W10       29.92R
YORKTON        CLEAR     61  52  72 SW10      29.83F



USA.gov is the U.S. government's official web portal to all federal, state and local government web resources and services.